Weather History for Lorain / Elyria, OH

Change the Weather History Date:

Monday, April 29, 2013

  Actual Average (KCLE) Record (KCLE)
Temperature  
Mean Temperature 60 °F 54 °F  
Max Temperature 66 °F 64 °F 84 °F (1899)
Min Temperature 55 °F 45 °F 25 °F (1977)
Degree Days  
Heating Degree Days 4 11  
Month to date heating degree days 458  
Since 1 July heating degree days 5501  
Cooling Degree Days 0 1  
Month to date cooling degree days 9  
Year to date cooling degree days 10  
Growing Degree Days 10 (Base 50)    
Moisture  
Dew Point 54 °F    
Average Humidity 82    
Maximum Humidity 94    
Minimum Humidity 56    
Precipitation  
Precipitation 0.11 in 0.10 in 0.54 in (1959)
Month to date precipitation 3.38  
Year to date precipitation 11.37  
Snow  
Snow 0.00 in 0.00 in - ()
Month to date snowfall 3.3  
Since 1 July snowfall 68.1  
Snow Depth -    
Sea Level Pressure  
Sea Level Pressure 29.93 in    
Wind  
Wind Speed 7 mph (WSW)    
Max Wind Speed 10 mph    
Max Gust Speed -    
Visibility 9 miles    
Events Rain    
T = Trace of Precipitation, MM = Missing Value Source: NWS Daily Summary

Daily Weather History Graph

Daily Weather History Graph

Search for Another Location

Airport:

Trip Planner

Search our weather history database for the weather conditions in past years. The results will help you decide how hot, cold, wet, or windy it might be!

Date:

Astronomy

Apr. 29, 2013 Rise Set
Actual Time 6:28 AM EDT 8:24 PM EDT
Civil Twilight 5:58 AM EDT 8:54 PM EDT
Nautical Twilight 5:22 AM EDT 9:30 PM EDT
Astronomical Twilight 4:42 AM EDT 10:10 PM EDT
Moon No Moon Rise 9:46 AM EDT (4/29)
Length of Visible Light 14h 55m
Length of Day
13h 55m
Waning Gibbous, 80% of the Moon is Illuminated
Apr 29
Waning Gibbous
May 2
Last Quarter
May 9
New
May 18
First Quarter
May 25
Full

Hourly Weather History & Observations

Time (EDT) Temp. Dew Point Humidity Pressure Visibility Wind Dir Wind Speed Gust Speed Precip Events Conditions
12:05 AM 57.2 °F 53.6 °F 88% 29.87 in 10.0 mi South 8.1 mph - N/A   Mostly Cloudy
12:16 AM 57.2 °F 53.6 °F 88% 29.87 in 10.0 mi South 10.4 mph - N/A   Overcast
12:32 AM 57.2 °F 53.6 °F 88% 29.87 in 10.0 mi South 10.4 mph - N/A   Overcast
12:53 AM 57.9 °F 54.0 °F 87% 29.87 in 10.0 mi South 9.2 mph - N/A   Overcast
1:53 AM 57.9 °F 54.0 °F 87% 29.87 in 10.0 mi South 8.1 mph - N/A   Overcast
2:53 AM 57.9 °F 55.0 °F 90% 29.87 in 10.0 mi South 6.9 mph - N/A   Overcast
3:53 AM 57.9 °F 55.0 °F 90% 29.87 in 10.0 mi South 6.9 mph - N/A   Overcast
4:33 AM 57.2 °F 55.4 °F 94% 29.88 in 4.0 mi South 8.1 mph - 0.09 in Rain Light Rain
4:53 AM 57.0 °F 55.0 °F 93% 29.88 in 6.0 mi SSW 6.9 mph - 0.10 in Rain Light Rain
5:53 AM 57.0 °F 55.0 °F 93% 29.90 in 6.0 mi SSW 5.8 mph - 0.01 in   Overcast
6:14 AM 57.2 °F 55.4 °F 94% 29.90 in 7.0 mi SSW 5.8 mph - N/A   Overcast
6:21 AM 57.2 °F 55.4 °F 94% 29.90 in 7.0 mi SSW 4.6 mph - N/A   Overcast
6:41 AM 57.2 °F 55.4 °F 94% 29.91 in 6.0 mi SW 5.8 mph - N/A   Overcast
6:53 AM 57.0 °F 55.0 °F 93% 29.91 in 4.0 mi SW 4.6 mph - N/A   Overcast
7:10 AM 57.2 °F 55.4 °F 94% 29.92 in 4.0 mi WSW 4.6 mph - N/A   Overcast
7:53 AM 57.0 °F 55.0 °F 93% 29.93 in 6.0 mi WSW 4.6 mph - N/A   Overcast
8:11 AM 57.2 °F 55.4 °F 94% 29.93 in 6.0 mi WSW 4.6 mph - N/A   Overcast
8:53 AM 57.9 °F 55.0 °F 90% 29.94 in 7.0 mi West 5.8 mph - N/A   Overcast
9:00 AM 59.0 °F 55.4 °F 88% 29.94 in 7.0 mi West 5.8 mph - N/A   Overcast
9:08 AM 59.0 °F 55.4 °F 88% 29.94 in 8.0 mi West 5.8 mph - N/A   Overcast
9:28 AM 59.0 °F 55.4 °F 88% 29.95 in 8.0 mi West 6.9 mph - N/A   Overcast
9:53 AM 59.0 °F 55.0 °F 87% 29.95 in 10.0 mi West 6.9 mph - N/A   Overcast
10:11 AM 60.8 °F 53.6 °F 77% 29.95 in 10.0 mi NW 8.1 mph - N/A   Overcast
10:40 AM 60.8 °F 53.6 °F 77% 29.95 in 10.0 mi West 5.8 mph - N/A   Mostly Cloudy
10:53 AM 62.1 °F 54.0 °F 75% 29.95 in 10.0 mi West 9.2 mph - N/A   Overcast
11:12 AM 60.8 °F 53.6 °F 77% 29.96 in 10.0 mi NNW 5.8 mph - N/A   Overcast
11:53 AM 61.0 °F 53.1 °F 75% 29.96 in 10.0 mi NW 10.4 mph - N/A   Overcast
12:02 PM 60.8 °F 53.6 °F 77% 29.97 in 10.0 mi NNW 6.9 mph - N/A   Overcast
12:40 PM 60.8 °F 51.8 °F 72% 29.97 in 10.0 mi NW 8.1 mph - N/A   Overcast
12:53 PM 60.1 °F 52.0 °F 75% 29.97 in 10.0 mi NNW 6.9 mph - N/A   Overcast
1:53 PM 63.0 °F 51.1 °F 65% 29.96 in 10.0 mi North 3.5 mph - N/A   Overcast
2:53 PM 64.0 °F 52.0 °F 65% 29.95 in 10.0 mi SW 4.6 mph - N/A   Overcast
3:53 PM 66.0 °F 51.1 °F 59% 29.94 in 10.0 mi NW 3.5 mph - N/A   Scattered Clouds
4:53 PM 66.0 °F 50.0 °F 56% 29.94 in 10.0 mi Variable 3.5 mph - N/A   Overcast
5:53 PM 66.9 °F 51.1 °F 57% 29.94 in 10.0 mi WSW 4.6 mph - N/A   Overcast
6:53 PM 66.9 °F 52.0 °F 59% 29.95 in 10.0 mi WSW 4.6 mph - N/A   Partly Cloudy
7:53 PM 64.0 °F 53.1 °F 67% 29.96 in 10.0 mi SSW 5.8 mph - N/A   Clear
8:53 PM 60.1 °F 52.0 °F 75% 29.96 in 10.0 mi SSW 4.6 mph - N/A   Clear
9:53 PM 60.1 °F 52.0 °F 75% 29.98 in 10.0 mi Calm Calm - N/A   Clear
10:53 PM 55.9 °F 52.0 °F 87% 29.98 in 10.0 mi South 5.8 mph - N/A   Clear
11:53 PM 57.0 °F 52.0 °F 83% 29.99 in 9.0 mi South 5.8 mph - N/A   Clear